Time,TemperatureF,DewpointF,PressureIn,WindDirection,WindDirectionDegrees,WindSpeedMPH,WindSpeedGustMPH,Humidity,HourlyPrecipIn,Conditions,Clouds,dailyrainin,SoftwareType,DateUTC
2013-04-01 00:00:00,53.4,53.1,28.72,SW,225,0.0,0.0,99,0.00,RA,,0.00,WeatherDisplay:10.37,2013-04-01 04:00:00,
2013-04-01 00:02:00,53.4,53.1,28.72,SW,225,0.0,0.0,99,0.00,RA,,0.00,WeatherDisplay:10.37,2013-04-01 04:02:00,
2013-04-01 00:07:00,53.4,53.1,28.72,SW,225,0.0,0.0,99,0.00,RA,,0.00,WeatherDisplay:10.37,2013-04-01 04:07:00,
2013-04-01 00:08:00,53.4,53.1,28.72,SW,225,0.0,0.0,99,0.00,RA,,0.00,WeatherDisplay:10.37,2013-04-01 04:08:00,
2013-04-01 00:11:00,53.4,53.1,28.72,SW,225,0.0,0.0,99,0.00,CLR,,0.00,WeatherDisplay:10.37,2013-04-01 04:11:00,
2013-04-01 00:17:00,53.4,53.1,28.72,SW,225,0.0,0.0,99,0.00,CLR,,0.00,WeatherDisplay:10.37,2013-04-01 04:17:00,
2013-04-01 00:24:00,53.4,53.1,28.72,SW,225,0.0,0.0,99,0.00,CLR,,0.31,WeatherDisplay:10.37,2013-04-01 04:24:00,
2013-04-01 00:29:00,53.4,53.1,28.72,SW,225,0.0,0.0,99,0.00,RA,,0.31,WeatherDisplay:10.37,2013-04-01 04:29:00,
2013-04-01 00:34:00,53.4,53.1,28.72,SW,225,0.0,0.0,99,0.00,RA,,0.31,WeatherDisplay:10.37,2013-04-01 04:34:00,
2013-04-01 00:39:00,53.2,53.0,28.72,SW,225,0.0,0.0,99,0.00,CLR,,0.31,WeatherDisplay:10.37,2013-04-01 04:39:00,
2013-04-01 00:44:00,53.2,53.0,28.72,SW,225,0.0,0.0,99,0.00,CLR,,0.31,WeatherDisplay:10.37,2013-04-01 04:44:00,
2013-04-01 00:49:00,53.2,53.0,28.72,SW,225,0.0,0.0,99,0.00,CLR,,0.31,WeatherDisplay:10.37,2013-04-01 04:49:00,
2013-04-01 00:54:00,53.4,53.1,28.72,SW,225,0.0,0.0,99,0.00,CLR,,0.31,WeatherDisplay:10.37,2013-04-01 04:54:00,
2013-04-01 01:00:00,53.4,53.1,28.72,SW,225,0.0,0.0,99,0.00,CLR,,0.31,WeatherDisplay:10.37,2013-04-01 05:00:00,
2013-04-01 01:05:00,53.2,53.0,28.73,SW,225,0.0,0.0,99,0.31,CLR,,0.31,WeatherDisplay:10.37,2013-04-01 05:05:00,
2013-04-01 01:10:00,53.2,53.0,28.73,SW,225,0.0,0.0,99,0.31,CLR,,0.31,WeatherDisplay:10.37,2013-04-01 05:10:00,
2013-04-01 01:15:00,53.2,53.0,28.73,SW,225,0.0,0.0,99,0.31,CLR,,0.31,WeatherDisplay:10.37,2013-04-01 05:15:00,
2013-04-01 01:20:00,53.2,53.0,28.73,SW,225,0.0,0.0,99,0.31,CLR,,0.31,WeatherDisplay:10.37,2013-04-01 05:20:00,
2013-04-01 01:25:00,53.2,53.0,28.73,SW,225,0.0,0.0,99,0.00,CLR,,0.31,WeatherDisplay:10.37,2013-04-01 05:25:00,
2013-04-01 01:30:00,53.4,53.1,28.73,SW,225,0.0,0.0,99,0.00,CLR,,0.31,WeatherDisplay:10.37,2013-04-01 05:30:00,
2013-04-01 01:35:00,53.4,53.1,28.73,SW,225,0.0,0.0,99,0.00,CLR,,0.31,WeatherDisplay:10.37,2013-04-01 05:35:00,
2013-04-01 01:42:00,53.4,53.1,28.73,SW,225,0.0,0.0,99,0.00,CLR,,0.31,WeatherDisplay:10.37,2013-04-01 05:42:00,
2013-04-01 01:48:00,53.4,53.1,28.73,SW,225,0.0,0.0,99,0.00,CLR,,0.31,WeatherDisplay:10.37,2013-04-01 05:48:00,
2013-04-01 01:53:00,53.2,53.0,28.73,SW,225,0.0,0.0,99,0.00,CLR,,0.31,WeatherDisplay:10.37,2013-04-01 05:53:00,
2013-04-01 01:58:00,53.1,52.8,28.73,SW,225,0.0,0.0,99,0.00,CLR,,0.31,WeatherDisplay:10.37,2013-04-01 05:58:00,
2013-04-01 02:03:00,53.1,52.8,28.73,SW,225,0.0,0.0,99,0.00,CLR,,0.31,WeatherDisplay:10.37,2013-04-01 06:03:00,
2013-04-01 02:08:00,53.1,52.8,28.73,SW,225,0.0,0.0,99,0.00,CLR,,0.31,WeatherDisplay:10.37,2013-04-01 06:08:00,
2013-04-01 02:13:00,53.2,53.0,28.73,SW,225,0.0,0.0,99,0.00,CLR,,0.31,WeatherDisplay:10.37,2013-04-01 06:13:00,
2013-04-01 02:18:00,53.1,52.8,28.73,SW,225,0.0,0.0,99,0.00,CLR,,0.31,WeatherDisplay:10.37,2013-04-01 06:18:00,
2013-04-01 02:23:00,53.1,52.8,28.73,SW,225,0.0,0.0,99,0.00,CLR,,0.31,WeatherDisplay:10.37,2013-04-01 06:23:00,
2013-04-01 02:28:00,52.9,52.6,28.73,SW,225,0.0,0.0,99,0.00,CLR,,0.31,WeatherDisplay:10.37,2013-04-01 06:28:00,
2013-04-01 02:33:00,53.1,52.8,28.73,SW,225,0.0,0.0,99,0.00,CLR,,0.31,WeatherDisplay:10.37,2013-04-01 06:33:00,
2013-04-01 02:38:00,53.1,52.8,28.73,SW,225,0.0,0.0,99,0.00,CLR,,0.31,WeatherDisplay:10.37,2013-04-01 06:38:00,
2013-04-01 02:43:00,53.1,52.8,28.72,SW,225,0.0,0.0,99,0.00,CLR,,0.31,WeatherDisplay:10.37,2013-04-01 06:43:00,
2013-04-01 02:48:00,53.1,52.8,28.72,SW,225,0.0,0.0,99,0.00,CLR,,0.31,WeatherDisplay:10.37,2013-04-01 06:48:00,
2013-04-01 02:53:00,53.1,52.8,28.72,SW,225,0.0,0.0,99,0.00,CLR,,0.31,WeatherDisplay:10.37,2013-04-01 06:53:00,
2013-04-01 02:58:00,53.2,53.0,28.71,SW,225,0.0,0.0,99,0.00,CLR,,0.31,WeatherDisplay:10.37,2013-04-01 06:58:00,
2013-04-01 03:03:00,53.2,53.0,28.71,SW,225,0.0,0.0,99,0.00,CLR,,0.31,WeatherDisplay:10.37,2013-04-01 07:03:00,
2013-04-01 03:08:00,53.4,53.1,28.72,SW,225,0.0,0.0,99,0.00,CLR,,0.31,WeatherDisplay:10.37,2013-04-01 07:08:00,
2013-04-01 03:14:00,53.2,53.0,28.72,SW,225,0.0,0.0,99,0.00,CLR,,0.31,WeatherDisplay:10.37,2013-04-01 07:14:00,
2013-04-01 03:19:00,53.2,53.0,28.72,SW,225,0.0,0.0,99,0.00,CLR,,0.31,WeatherDisplay:10.37,2013-04-01 07:19:00,
2013-04-01 03:24:00,53.2,53.0,28.72,SW,225,0.0,0.0,99,0.00,CLR,,0.31,WeatherDisplay:10.37,2013-04-01 07:24:00,
2013-04-01 03:29:00,53.4,53.1,28.72,SW,225,3.5,0.0,99,0.00,CLR,,0.31,WeatherDisplay:10.37,2013-04-01 07:29:00,
2013-04-01 03:34:00,53.4,53.1,28.72,SW,225,0.0,0.0,99,0.00,CLR,,0.31,WeatherDisplay:10.37,2013-04-01 07:34:00,
2013-04-01 03:39:00,53.4,53.1,28.72,SW,225,0.0,0.0,99,0.00,CLR,,0.31,WeatherDisplay:10.37,2013-04-01 07:39:00,
2013-04-01 03:45:00,53.2,53.0,28.72,SW,225,0.0,0.0,99,0.00,CLR,,0.31,WeatherDisplay:10.37,2013-04-01 07:45:00,
2013-04-01 03:50:00,53.2,53.0,28.72,SW,225,0.0,0.0,99,0.00,CLR,,0.31,WeatherDisplay:10.37,2013-04-01 07:50:00,
2013-04-01 03:57:00,53.1,52.8,28.72,SW,225,0.0,0.0,99,0.00,CLR,,0.31,WeatherDisplay:10.37,2013-04-01 07:57:00,
2013-04-01 04:02:00,53.1,52.8,28.72,SW,225,0.0,0.0,99,0.00,CLR,,0.31,WeatherDisplay:10.37,2013-04-01 08:02:00,
2013-04-01 04:07:00,52.9,52.6,28.72,SW,225,0.0,0.0,99,0.00,CLR,,0.31,WeatherDisplay:10.37,2013-04-01 08:07:00,
2013-04-01 04:12:00,52.9,52.6,28.72,SW,225,0.0,0.0,99,0.00,CLR,,0.31,WeatherDisplay:10.37,2013-04-01 08:12:00,
2013-04-01 04:17:00,52.9,52.6,28.72,SW,225,0.0,0.0,99,0.00,CLR,,0.31,WeatherDisplay:10.37,2013-04-01 08:17:00,
2013-04-01 04:23:00,53.2,53.0,28.72,SW,225,0.0,0.0,99,0.00,CLR,,0.31,WeatherDisplay:10.37,2013-04-01 08:23:00,
2013-04-01 04:28:00,53.2,53.0,28.72,SW,225,0.0,0.0,99,0.00,CLR,,0.31,WeatherDisplay:10.37,2013-04-01 08:28:00,
2013-04-01 04:33:00,53.1,52.8,28.72,SW,225,0.0,0.0,99,0.00,CLR,,0.31,WeatherDisplay:10.37,2013-04-01 08:33:00,
2013-04-01 04:38:00,53.1,52.8,28.73,SW,225,0.0,0.0,99,0.00,CLR,,0.31,WeatherDisplay:10.37,2013-04-01 08:38:00,
2013-04-01 04:43:00,52.9,52.6,28.73,SW,225,0.0,0.0,99,0.00,CLR,,0.31,WeatherDisplay:10.37,2013-04-01 08:43:00,
2013-04-01 04:49:00,52.9,52.6,28.73,SW,225,0.0,0.0,99,0.00,CLR,,0.31,WeatherDisplay:10.37,2013-04-01 08:49:00,
2013-04-01 04:54:00,52.9,52.6,28.72,SW,225,0.0,0.0,99,0.01,RA,,0.32,WeatherDisplay:10.37,2013-04-01 08:54:00,
2013-04-01 04:59:00,52.7,52.4,28.73,SW,225,0.0,0.0,99,0.01,RA,,0.32,WeatherDisplay:10.37,2013-04-01 08:59:00,
2013-04-01 05:04:00,52.5,52.2,28.72,SW,225,0.0,0.0,99,0.01,,,0.32,WeatherDisplay:10.37,2013-04-01 09:04:00,
2013-04-01 05:09:00,52.3,52.1,28.73,SW,225,0.0,0.0,99,0.01,CLR,,0.32,WeatherDisplay:10.37,2013-04-01 09:09:00,
2013-04-01 05:14:00,52.0,51.7,28.73,SW,225,0.0,0.0,99,0.01,CLR,,0.32,WeatherDisplay:10.37,2013-04-01 09:14:00,
2013-04-01 05:19:00,52.0,51.7,28.73,SW,225,0.0,0.0,99,0.01,CLR,,0.32,WeatherDisplay:10.37,2013-04-01 09:19:00,
2013-04-01 05:24:00,52.0,51.7,28.73,SW,225,0.0,0.0,99,0.01,CLR,,0.32,WeatherDisplay:10.37,2013-04-01 09:24:00,
2013-04-01 05:29:00,51.6,51.3,28.73,SW,225,0.0,0.0,99,0.01,CLR,,0.32,WeatherDisplay:10.37,2013-04-01 09:29:00,
2013-04-01 05:34:00,51.6,51.3,28.73,SW,225,0.0,0.0,99,0.01,CLR,,0.32,WeatherDisplay:10.37,2013-04-01 09:34:00,
2013-04-01 05:39:00,51.4,51.2,28.74,SW,225,0.0,0.0,99,0.01,CLR,,0.32,WeatherDisplay:10.37,2013-04-01 09:39:00,
2013-04-01 05:44:00,51.4,51.2,28.73,SW,225,0.0,0.0,99,0.01,CLR,,0.32,WeatherDisplay:10.37,2013-04-01 09:44:00,
2013-04-01 05:49:00,51.4,51.2,28.74,SW,225,0.0,0.0,99,0.01,CLR,,0.32,WeatherDisplay:10.37,2013-04-01 09:49:00,
2013-04-01 05:55:00,51.3,51.0,28.74,SW,225,0.0,0.0,99,0.00,CLR,,0.32,WeatherDisplay:10.37,2013-04-01 09:55:00,
2013-04-01 06:00:00,50.9,50.6,28.74,SW,225,0.0,0.0,99,0.00,CLR,,0.32,WeatherDisplay:10.37,2013-04-01 10:00:00,
2013-04-01 06:05:00,50.5,50.3,28.74,SW,225,0.0,0.0,99,0.00,CLR,,0.32,WeatherDisplay:10.37,2013-04-01 10:05:00,
2013-04-01 06:11:00,50.2,49.9,28.74,SW,225,0.0,0.0,99,0.00,CLR,,0.32,WeatherDisplay:10.37,2013-04-01 10:11:00,
2013-04-01 06:16:00,49.6,49.4,28.74,SW,225,0.0,0.0,99,0.00,CLR,,0.32,WeatherDisplay:10.37,2013-04-01 10:16:00,
2013-04-01 06:22:00,49.3,49.0,28.75,SW,225,0.0,0.0,99,0.00,CLR,,0.32,WeatherDisplay:10.37,2013-04-01 10:22:00,
2013-04-01 06:27:00,48.9,48.7,28.75,SW,225,0.0,0.0,99,0.00,CLR,,0.32,WeatherDisplay:10.37,2013-04-01 10:27:00,
2013-04-01 06:32:00,48.6,48.3,28.75,SW,225,0.0,0.0,99,0.00,CLR,,0.32,WeatherDisplay:10.37,2013-04-01 10:32:00,
2013-04-01 06:38:00,48.2,47.9,28.75,SW,225,0.0,0.0,99,0.00,CLR,,0.32,WeatherDisplay:10.37,2013-04-01 10:38:00,
2013-04-01 06:43:00,47.8,47.6,28.75,SW,225,0.0,0.0,99,0.00,CLR,,0.32,WeatherDisplay:10.37,2013-04-01 10:43:00,
2013-04-01 06:48:00,47.7,47.4,28.75,SW,225,0.0,0.0,99,0.00,CLR,,0.32,WeatherDisplay:10.37,2013-04-01 10:48:00,
2013-04-01 06:53:00,47.7,47.4,28.76,SW,225,0.0,0.0,99,0.00,CLR,,0.32,WeatherDisplay:10.37,2013-04-01 10:53:00,
2013-04-01 06:58:00,47.5,47.2,28.76,SW,225,0.0,0.0,99,0.00,CLR,,0.32,WeatherDisplay:10.37,2013-04-01 10:58:00,
2013-04-01 07:03:00,47.3,47.0,28.76,SW,225,0.0,0.0,99,0.00,CLR,,0.32,WeatherDisplay:10.37,2013-04-01 11:03:00,
2013-04-01 07:08:00,47.3,47.0,28.76,SW,225,0.0,0.0,99,0.00,CLR,,0.32,WeatherDisplay:10.37,2013-04-01 11:08:00,
2013-04-01 07:13:00,47.7,47.4,28.76,SW,225,0.0,0.0,99,0.00,CLR,,0.32,WeatherDisplay:10.37,2013-04-01 11:13:00,
2013-04-01 07:18:00,47.8,47.6,28.77,SW,225,0.0,0.0,99,0.00,CLR,,0.32,WeatherDisplay:10.37,2013-04-01 11:18:00,
2013-04-01 07:24:00,47.8,47.6,28.76,SW,225,0.0,0.0,99,0.00,CLR,,0.32,WeatherDisplay:10.37,2013-04-01 11:24:00,
2013-04-01 07:29:00,47.7,47.4,28.77,SW,225,1.2,1.2,99,0.00,CLR,,0.32,WeatherDisplay:10.37,2013-04-01 11:29:00,
2013-04-01 07:34:00,47.5,47.2,28.77,SW,225,0.0,0.0,99,0.00,CLR,,0.32,WeatherDisplay:10.37,2013-04-01 11:34:00,
2013-04-01 07:39:00,47.5,47.2,28.78,SW,225,0.0,0.0,99,0.00,CLR,,0.32,WeatherDisplay:10.37,2013-04-01 11:39:00,
2013-04-01 07:44:00,47.7,47.4,28.78,SW,225,0.0,0.0,99,0.00,CLR,,0.32,WeatherDisplay:10.37,2013-04-01 11:44:00,
2013-04-01 07:49:00,47.7,47.4,28.78,SW,225,0.0,0.0,99,0.00,CLR,,0.32,WeatherDisplay:10.37,2013-04-01 11:49:00,
2013-04-01 07:54:00,48.0,47.8,28.78,SW,225,0.0,0.0,99,0.00,CLR,,0.32,WeatherDisplay:10.37,2013-04-01 11:54:00,
2013-04-01 07:59:00,49.3,49.0,28.78,SW,225,0.0,0.0,99,0.00,CLR,,0.32,WeatherDisplay:10.37,2013-04-01 11:59:00,
2013-04-01 08:04:00,48.9,48.7,28.78,SW,225,0.0,0.0,99,0.00,CLR,,0.32,WeatherDisplay:10.37,2013-04-01 12:04:00,
2013-04-01 08:09:00,48.6,48.3,28.78,SW,225,0.0,0.0,99,0.00,CLR,,0.32,WeatherDisplay:10.37,2013-04-01 12:09:00,
2013-04-01 08:14:00,49.5,49.2,28.78,SW,225,1.2,0.0,99,0.00,CLR,,0.32,WeatherDisplay:10.37,2013-04-01 12:14:00,
2013-04-01 08:19:00,51.8,51.5,28.78,SW,225,0.0,0.0,99,0.00,CLR,,0.32,WeatherDisplay:10.37,2013-04-01 12:19:00,
2013-04-01 08:24:00,54.9,54.6,28.79,SW,225,2.3,0.0,99,0.00,CLR,,0.32,WeatherDisplay:10.37,2013-04-01 12:24:00,
2013-04-01 08:29:00,55.8,55.5,28.79,SW,225,0.0,0.0,99,0.00,CLR,,0.32,WeatherDisplay:10.37,2013-04-01 12:29:00,
2013-04-01 08:34:00,57.2,56.9,28.79,SW,225,2.3,0.0,99,0.00,CLR,,0.32,WeatherDisplay:10.37,2013-04-01 12:34:00,
2013-04-01 08:39:00,58.6,58.1,28.79,SW,225,0.0,0.0,98,0.00,CLR,,0.32,WeatherDisplay:10.37,2013-04-01 12:39:00,
2013-04-01 08:44:00,60.1,55.2,28.79,SW,225,5.8,5.8,84,0.00,CLR,,0.32,WeatherDisplay:10.37,2013-04-01 12:44:00,
2013-04-01 08:49:00,60.6,54.8,28.80,SW,225,3.5,0.0,81,0.00,CLR,,0.32,WeatherDisplay:10.37,2013-04-01 12:49:00,
2013-04-01 08:54:00,61.7,55.5,28.80,SW,225,0.0,0.0,80,0.00,CLR,,0.32,WeatherDisplay:10.37,2013-04-01 12:54:00,
2013-04-01 08:59:00,61.7,52.6,28.80,SW,225,3.5,3.5,72,0.00,CLR,,0.32,WeatherDisplay:10.37,2013-04-01 12:59:00,
2013-04-01 09:04:00,61.5,52.4,28.80,NW,315,3.5,3.5,72,0.00,CLR,,0.32,WeatherDisplay:10.37,2013-04-01 13:04:00,
2013-04-01 09:09:00,62.1,53.3,28.79,SW,225,1.2,0.0,73,0.00,CLR,,0.32,WeatherDisplay:10.37,2013-04-01 13:09:00,
2013-04-01 09:14:00,63.1,52.0,28.80,SW,225,3.5,3.5,67,0.00,CLR,,0.32,WeatherDisplay:10.37,2013-04-01 13:14:00,
2013-04-01 09:19:00,63.3,51.8,28.80,NW,315,1.2,0.0,66,0.00,CLR,,0.32,WeatherDisplay:10.37,2013-04-01 13:19:00,
2013-04-01 09:24:00,63.7,51.7,28.80,NW,315,5.8,5.8,65,0.00,CLR,,0.32,WeatherDisplay:10.37,2013-04-01 13:24:00,
2013-04-01 09:29:00,64.8,51.4,28.80,SW,225,1.2,1.2,62,0.00,CLR,,0.32,WeatherDisplay:10.37,2013-04-01 13:29:00,
2013-04-01 09:34:00,65.5,49.4,28.80,NW,315,3.5,3.5,56,0.00,CLR,,0.32,WeatherDisplay:10.37,2013-04-01 13:34:00,
2013-04-01 09:40:00,64.9,49.8,28.80,West,270,4.6,4.6,58,0.00,CLR,,0.32,WeatherDisplay:10.37,2013-04-01 13:40:00,
2013-04-01 09:45:00,64.6,49.5,28.80,NW,315,3.5,3.5,58,0.00,CLR,,0.32,WeatherDisplay:10.37,2013-04-01 13:45:00,
2013-04-01 09:50:00,65.5,50.8,28.80,NW,315,2.3,2.3,59,0.00,CLR,,0.32,WeatherDisplay:10.37,2013-04-01 13:50:00,
2013-04-01 09:55:00,66.2,51.4,28.79,NW,315,1.2,0.0,59,0.00,CLR,,0.32,WeatherDisplay:10.37,2013-04-01 13:55:00,
2013-04-01 10:00:00,67.5,51.7,28.79,West,270,1.2,1.2,57,0.00,CLR,,0.32,WeatherDisplay:10.37,2013-04-01 14:00:00,
2013-04-01 10:05:00,67.1,50.4,28.80,NW,315,4.6,4.6,55,0.00,CLR,,0.32,WeatherDisplay:10.37,2013-04-01 14:05:00,
2013-04-01 10:10:00,66.7,50.1,28.80,NW,315,3.5,0.0,55,0.00,CLR,,0.32,WeatherDisplay:10.37,2013-04-01 14:10:00,
2013-04-01 10:15:00,67.5,49.7,28.80,West,270,5.8,5.8,53,0.00,CLR,,0.32,WeatherDisplay:10.37,2013-04-01 14:15:00,
2013-04-01 10:20:00,68.0,50.7,28.79,SW,225,2.3,0.0,54,0.00,CLR,,0.32,WeatherDisplay:10.37,2013-04-01 14:20:00,
2013-04-01 10:25:00,68.4,49.5,28.79,NW,315,4.6,4.6,51,0.00,CLR,,0.32,WeatherDisplay:10.37,2013-04-01 14:25:00,
2013-04-01 10:30:00,67.1,48.9,28.80,NW,315,4.6,4.6,52,0.00,CLR,,0.32,WeatherDisplay:10.37,2013-04-01 14:30:00,
2013-04-01 10:35:00,67.5,49.7,28.79,SW,225,2.3,0.0,53,0.00,CLR,,0.32,WeatherDisplay:10.37,2013-04-01 14:35:00,
2013-04-01 10:40:00,69.3,51.4,28.79,SW,225,2.3,2.3,53,0.00,CLR,,0.32,WeatherDisplay:10.37,2013-04-01 14:40:00,
2013-04-01 10:46:00,70.7,52.7,28.80,West,270,2.3,0.0,53,0.00,CLR,,0.32,WeatherDisplay:10.37,2013-04-01 14:46:00,
2013-04-01 10:51:00,71.1,52.0,28.79,SW,225,3.5,3.5,51,0.00,CLR,,0.32,WeatherDisplay:10.37,2013-04-01 14:51:00,
2013-04-01 10:56:00,70.9,49.6,28.80,SW,225,2.3,2.3,47,0.00,CLR,,0.32,WeatherDisplay:10.37,2013-04-01 14:56:00,
2013-04-01 11:01:00,70.7,51.1,28.80,SW,225,3.5,3.5,50,0.00,CLR,,0.32,WeatherDisplay:10.37,2013-04-01 15:01:00,
2013-04-01 11:07:00,71.1,50.9,28.79,SW,225,2.3,0.0,49,0.00,CLR,,0.32,WeatherDisplay:10.37,2013-04-01 15:07:00,
2013-04-01 11:12:00,71.6,50.3,28.79,SW,225,3.5,0.0,47,0.00,CLR,,0.32,WeatherDisplay:10.37,2013-04-01 15:12:00,
2013-04-01 11:17:00,71.4,49.0,28.79,SW,225,5.8,5.8,45,0.00,CLR,,0.32,WeatherDisplay:10.37,2013-04-01 15:17:00,
2013-04-01 11:22:00,70.9,50.2,28.80,West,270,3.5,3.5,48,0.00,CLR,,0.32,WeatherDisplay:10.37,2013-04-01 15:22:00,
2013-04-01 11:28:00,70.3,49.7,28.80,SW,225,5.8,0.0,48,0.00,CLR,,0.32,WeatherDisplay:10.37,2013-04-01 15:28:00,
2013-04-01 11:33:00,70.3,48.0,28.80,WNW,292,6.9,6.9,45,0.00,CLR,,0.32,WeatherDisplay:10.37,2013-04-01 15:33:00,
2013-04-01 11:38:00,70.2,50.1,28.80,NW,315,4.6,4.6,49,0.00,CLR,,0.32,WeatherDisplay:10.37,2013-04-01 15:38:00,
2013-04-01 11:43:00,70.0,48.8,28.80,SW,225,5.8,5.8,47,0.00,CLR,,0.32,WeatherDisplay:10.37,2013-04-01 15:43:00,
2013-04-01 11:49:00,70.3,49.1,28.80,SW,225,3.5,3.5,47,0.00,CLR,,0.32,WeatherDisplay:10.37,2013-04-01 15:49:00,
2013-04-01 11:55:00,70.7,49.5,28.79,SW,225,2.3,0.0,47,0.00,CLR,,0.32,WeatherDisplay:10.37,2013-04-01 15:55:00,
2013-04-01 12:00:00,71.6,49.7,28.79,West,270,3.5,0.0,46,0.00,CLR,,0.32,WeatherDisplay:10.37,2013-04-01 16:00:00,
2013-04-01 12:05:00,71.4,49.0,28.79,SW,225,3.5,3.5,45,0.00,CLR,,0.32,WeatherDisplay:10.37,2013-04-01 16:05:00,
2013-04-01 12:10:00,70.9,46.6,28.80,NW,315,5.8,5.8,42,0.00,CLR,,0.32,WeatherDisplay:10.37,2013-04-01 16:10:00,
2013-04-01 12:16:00,70.7,47.1,28.79,West,270,5.8,5.8,43,0.00,CLR,,0.32,WeatherDisplay:10.37,2013-04-01 16:16:00,
2013-04-01 12:22:00,71.6,47.9,28.79,West,270,3.5,3.5,43,0.00,CLR,,0.32,WeatherDisplay:10.37,2013-04-01 16:22:00,
2013-04-01 12:27:00,72.0,47.0,28.80,NW,315,5.8,5.8,41,0.00,CLR,,0.32,WeatherDisplay:10.37,2013-04-01 16:27:00,
2013-04-01 12:33:00,71.4,47.1,28.79,NW,315,5.8,5.8,42,0.00,CLR,,0.32,WeatherDisplay:10.37,2013-04-01 16:33:00,
2013-04-01 12:39:00,71.6,48.5,28.79,SW,225,3.5,3.5,44,0.00,CLR,,0.32,WeatherDisplay:10.37,2013-04-01 16:39:00,
2013-04-01 12:44:00,71.8,49.9,28.79,North,0,4.6,4.6,46,0.00,CLR,,0.32,WeatherDisplay:10.37,2013-04-01 16:44:00,
2013-04-01 12:50:00,72.1,47.8,28.79,North,0,1.2,0.0,42,0.00,CLR,,0.32,WeatherDisplay:10.37,2013-04-01 16:50:00,
2013-04-01 12:55:00,72.3,46.6,28.79,SW,225,6.9,6.9,40,0.00,CLR,,0.32,WeatherDisplay:10.37,2013-04-01 16:55:00,
2013-04-01 13:00:00,71.8,46.2,28.79,NW,315,6.9,6.9,40,0.00,CLR,,0.32,WeatherDisplay:10.37,2013-04-01 17:00:00,
2013-04-01 13:05:00,71.6,47.3,28.78,North,0,6.9,6.9,42,0.00,CLR,,0.32,WeatherDisplay:10.37,2013-04-01 17:05:00,
2013-04-01 13:10:00,71.2,46.3,28.78,SW,225,5.8,5.8,41,0.00,CLR,,0.32,WeatherDisplay:10.37,2013-04-01 17:10:00,
2013-04-01 13:15:00,71.1,47.4,28.78,SW,225,8.1,8.1,43,0.00,CLR,,0.32,WeatherDisplay:10.37,2013-04-01 17:15:00,
2013-04-01 13:22:00,71.1,46.8,28.78,NW,315,5.8,5.8,42,0.00,CLR,,0.32,WeatherDisplay:10.37,2013-04-01 17:22:00,
2013-04-01 13:27:00,71.6,47.9,28.78,SW,225,3.5,3.5,43,0.00,CLR,,0.32,WeatherDisplay:10.37,2013-04-01 17:27:00,
2013-04-01 13:32:00,72.1,47.8,28.77,SW,225,3.5,3.5,42,0.00,CLR,,0.32,WeatherDisplay:10.37,2013-04-01 17:32:00,
2013-04-01 13:37:00,72.3,46.6,28.77,NW,315,4.6,4.6,40,0.00,CLR,,0.32,WeatherDisplay:10.37,2013-04-01 17:37:00,
2013-04-01 13:42:00,71.8,46.8,28.77,West,270,3.5,3.5,41,0.00,CLR,,0.32,WeatherDisplay:10.37,2013-04-01 17:42:00,
2013-04-01 13:47:00,72.3,46.6,28.77,SW,225,8.1,8.1,40,0.00,CLR,,0.32,WeatherDisplay:10.37,2013-04-01 17:47:00,
2013-04-01 13:52:00,72.5,47.5,28.77,West,270,9.2,9.2,41,0.00,CLR,,0.32,WeatherDisplay:10.37,2013-04-01 17:52:00,
2013-04-01 13:57:00,72.1,47.8,28.76,NW,315,6.9,6.9,42,0.00,CLR,,0.32,WeatherDisplay:10.37,2013-04-01 17:57:00,
2013-04-01 14:02:00,72.9,48.4,28.76,NW,315,11.5,11.5,42,0.00,CLR,,0.32,WeatherDisplay:10.37,2013-04-01 18:02:00,
2013-04-01 14:08:00,72.9,47.1,28.76,SW,225,6.9,6.9,40,0.00,CLR,,0.32,WeatherDisplay:10.37,2013-04-01 18:08:00,
2013-04-01 14:13:00,72.3,45.3,28.76,SW,225,9.2,9.2,38,0.00,CLR,,0.32,WeatherDisplay:10.37,2013-04-01 18:13:00,
2013-04-01 14:18:00,72.9,49.1,28.76,NW,315,6.0,6.0,43,0.00,CLR,,0.32,WeatherDisplay:10.37,2013-04-01 18:18:00,
2013-04-01 14:23:00,72.9,49.1,28.76,NW,315,5.8,5.8,43,0.00,CLR,,0.32,WeatherDisplay:10.37,2013-04-01 18:23:00,
2013-04-01 14:28:00,73.4,46.2,28.76,SW,225,6.9,6.9,38,0.00,CLR,,0.32,WeatherDisplay:10.37,2013-04-01 18:28:00,
2013-04-01 14:33:00,71.4,46.5,28.76,SE,135,3.5,0.0,41,0.00,CLR,,0.32,WeatherDisplay:10.37,2013-04-01 18:33:00,
2013-04-01 14:38:00,71.6,46.6,28.76,SW,225,2.3,2.3,41,0.00,CLR,,0.32,WeatherDisplay:10.37,2013-04-01 18:38:00,
2013-04-01 14:43:00,71.6,47.9,28.76,SW,225,8.1,8.1,43,0.00,CLR,,0.32,WeatherDisplay:10.37,2013-04-01 18:43:00,
2013-04-01 14:48:00,71.2,47.6,28.75,NW,315,4.6,4.6,43,0.00,CLR,,0.32,WeatherDisplay:10.37,2013-04-01 18:48:00,
2013-04-01 14:53:00,72.5,48.1,28.75,NW,315,5.8,5.8,42,0.00,CLR,,0.32,WeatherDisplay:10.37,2013-04-01 18:53:00,
2013-04-01 14:58:00,73.0,46.6,28.75,WNW,292,13.8,13.8,39,0.00,CLR,,0.32,WeatherDisplay:10.37,2013-04-01 18:58:00,
2013-04-01 15:04:00,71.6,46.0,28.75,NW,315,12.7,12.7,40,0.00,CLR,,0.32,WeatherDisplay:10.37,2013-04-01 19:04:00,
2013-04-01 15:09:00,71.4,47.7,28.75,NW,315,4.6,4.6,43,0.00,CLR,,0.32,WeatherDisplay:10.37,2013-04-01 19:09:00,
2013-04-01 15:14:00,72.3,49.2,28.75,SW,225,5.8,5.8,44,0.00,CLR,,0.32,WeatherDisplay:10.37,2013-04-01 19:14:00,
2013-04-01 15:19:00,73.9,48.1,28.75,NW,315,8.1,8.1,40,0.00,CLR,,0.32,WeatherDisplay:10.37,2013-04-01 19:19:00,
2013-04-01 15:24:00,74.5,48.6,28.75,SW,225,3.5,3.5,40,0.00,CLR,,0.32,WeatherDisplay:10.37,2013-04-01 19:24:00,
2013-04-01 15:29:00,73.2,48.7,28.75,NW,315,8.1,8.1,42,0.00,CLR,,0.32,WeatherDisplay:10.37,2013-04-01 19:29:00,
2013-04-01 15:34:00,71.4,47.7,28.75,NW,315,12.7,12.7,43,0.00,CLR,,0.32,WeatherDisplay:10.37,2013-04-01 19:34:00,
2013-04-01 15:39:00,72.9,47.8,28.75,West,270,12.7,12.7,41,0.00,CLR,,0.32,WeatherDisplay:10.37,2013-04-01 19:39:00,
2013-04-01 15:44:00,73.4,48.9,28.75,SW,225,10.4,10.4,42,0.00,CLR,,0.32,WeatherDisplay:10.37,2013-04-01 19:44:00,
2013-04-01 15:49:00,74.3,47.0,28.75,North,0,9.2,9.2,38,0.00,CLR,,0.32,WeatherDisplay:10.37,2013-04-01 19:49:00,
2013-04-01 15:55:00,73.8,46.6,28.76,West,270,17.3,17.3,38,0.00,CLR,,0.32,WeatherDisplay:10.37,2013-04-01 19:55:00,
2013-04-01 16:00:00,73.4,47.6,28.75,NW,315,5.8,5.8,40,0.00,CLR,,0.32,WeatherDisplay:10.37,2013-04-01 20:00:00,
2013-04-01 16:05:00,73.9,47.4,28.75,NW,315,15.0,15.0,39,0.00,CLR,,0.32,WeatherDisplay:10.37,2013-04-01 20:05:00,
2013-04-01 16:10:00,73.2,46.8,28.75,WSW,248,6.9,6.9,39,0.00,CLR,,0.32,WeatherDisplay:10.37,2013-04-01 20:10:00,
2013-04-01 16:15:00,73.0,46.6,28.75,SW,225,15.0,15.0,39,0.00,CLR,,0.32,WeatherDisplay:10.37,2013-04-01 20:15:00,
2013-04-01 16:20:00,72.5,46.1,28.75,North,0,13.8,13.8,39,0.00,CLR,,0.32,WeatherDisplay:10.37,2013-04-01 20:20:00,
2013-04-01 16:25:00,72.0,46.3,28.75,NW,315,12.7,12.7,40,0.00,CLR,,0.32,WeatherDisplay:10.37,2013-04-01 20:25:00,
2013-04-01 16:30:00,72.1,47.1,28.75,NW,315,12.7,12.7,41,0.00,CLR,,0.32,WeatherDisplay:10.37,2013-04-01 20:30:00,
2013-04-01 16:35:00,72.3,47.3,28.75,SW,225,9.2,9.2,41,0.00,CLR,,0.32,WeatherDisplay:10.37,2013-04-01 20:35:00,
2013-04-01 16:40:00,72.5,48.1,28.75,NW,315,8.1,8.1,42,0.00,CLR,,0.32,WeatherDisplay:10.37,2013-04-01 20:40:00,
2013-04-01 16:45:00,72.7,47.6,28.75,NW,315,9.2,9.2,41,0.00,CLR,,0.32,WeatherDisplay:10.37,2013-04-01 20:45:00,
2013-04-01 16:50:00,72.7,47.6,28.75,West,270,10.4,10.4,41,0.00,CLR,,0.32,WeatherDisplay:10.37,2013-04-01 20:50:00,
2013-04-01 16:55:00,70.9,46.0,28.75,NW,315,12.7,12.7,41,0.00,CLR,,0.32,WeatherDisplay:10.37,2013-04-01 20:55:00,
2013-04-01 17:00:00,69.4,46.6,28.75,NW,315,8.1,8.1,44,0.00,CLR,,0.32,WeatherDisplay:10.37,2013-04-01 21:00:00,
2013-04-01 17:05:00,68.9,46.1,28.75,SW,225,3.5,3.8,44,0.00,CLR,,0.32,WeatherDisplay:10.37,2013-04-01 21:05:00,
2013-04-01 17:10:00,68.5,46.9,28.75,NW,315,8.1,8.1,46,0.00,CLR,,0.32,WeatherDisplay:10.37,2013-04-01 21:10:00,
2013-04-01 17:15:00,68.5,46.3,28.75,NNW,338,6.9,6.9,45,0.00,CLR,,0.32,WeatherDisplay:10.37,2013-04-01 21:15:00,
2013-04-01 17:20:00,68.7,45.9,28.75,SW,225,10.4,10.4,44,0.00,CLR,,0.32,WeatherDisplay:10.37,2013-04-01 21:20:00,
2013-04-01 17:27:00,68.9,46.1,28.75,NW,315,15.0,15.0,44,0.00,CLR,,0.32,WeatherDisplay:10.37,2013-04-01 21:27:00,
2013-04-01 17:32:00,69.1,46.2,28.75,SW,225,8.1,8.1,44,0.00,CLR,,0.32,WeatherDisplay:10.37,2013-04-01 21:32:00,
2013-04-01 17:38:00,68.9,46.1,28.75,North,0,8.1,8.1,44,0.00,CLR,,0.32,WeatherDisplay:10.37,2013-04-01 21:38:00,
2013-04-01 17:43:00,68.7,45.9,28.75,WSW,248,8.1,8.1,44,0.00,CLR,,0.32,WeatherDisplay:10.37,2013-04-01 21:43:00,
2013-04-01 17:48:00,68.7,46.5,28.75,SW,225,10.4,10.4,45,0.00,CLR,,0.32,WeatherDisplay:10.37,2013-04-01 21:48:00,
2013-04-01 17:53:00,68.2,47.2,28.75,NW,315,16.1,16.1,47,0.00,CLR,,0.32,WeatherDisplay:10.37,2013-04-01 21:53:00,
2013-04-01 17:58:00,68.5,46.9,28.75,West,270,8.1,8.1,46,0.00,CLR,,0.32,WeatherDisplay:10.37,2013-04-01 21:58:00,
2013-04-01 18:03:00,68.5,46.9,28.75,WNW,292,11.5,11.5,46,0.00,CLR,,0.32,WeatherDisplay:10.37,2013-04-01 22:03:00,
2013-04-01 18:08:00,68.4,46.8,28.76,NW,315,5.8,5.8,46,0.00,CLR,,0.32,WeatherDisplay:10.37,2013-04-01 22:08:00,
2013-04-01 18:13:00,68.4,46.8,28.75,NW,315,5.8,5.8,46,0.00,CLR,,0.32,WeatherDisplay:10.37,2013-04-01 22:13:00,
2013-04-01 18:18:00,68.5,47.5,28.75,NW,315,5.8,5.8,47,0.00,CLR,,0.32,WeatherDisplay:10.37,2013-04-01 22:18:00,
2013-04-01 18:24:00,68.4,47.9,28.76,NW,315,10.4,10.4,48,0.00,CLR,,0.32,WeatherDisplay:10.37,2013-04-01 22:24:00,
2013-04-01 18:29:00,67.6,47.8,28.76,NW,315,6.9,6.9,49,0.00,CLR,,0.32,WeatherDisplay:10.37,2013-04-01 22:29:00,
2013-04-01 18:34:00,67.5,48.7,28.76,NW,315,3.5,3.5,51,0.00,CLR,,0.32,WeatherDisplay:10.37,2013-04-01 22:34:00,
2013-04-01 18:39:00,68.2,48.3,28.76,NW,315,4.6,4.6,49,0.00,CLR,,0.32,WeatherDisplay:10.37,2013-04-01 22:39:00,
2013-04-01 18:44:00,68.5,48.1,28.76,SW,225,5.8,5.8,48,0.00,CLR,,0.32,WeatherDisplay:10.37,2013-04-01 22:44:00,
2013-04-01 18:49:00,66.7,47.0,28.76,NW,315,10.4,10.4,49,0.00,CLR,,0.32,WeatherDisplay:10.37,2013-04-01 22:49:00,
2013-04-01 18:55:00,65.3,47.2,28.76,SW,225,5.8,5.8,52,0.00,CLR,,0.32,WeatherDisplay:10.37,2013-04-01 22:55:00,
2013-04-01 19:00:00,64.6,46.6,28.75,NW,315,15.0,15.0,52,0.00,CLR,,0.32,WeatherDisplay:10.37,2013-04-01 23:00:00,
2013-04-01 19:05:00,64.0,46.6,28.76,NW,315,12.7,12.7,53,0.00,CLR,,0.32,WeatherDisplay:10.37,2013-04-01 23:05:00,
2013-04-01 19:10:00,63.7,46.2,28.76,NW,315,10.4,10.4,53,0.00,CLR,,0.32,WeatherDisplay:10.37,2013-04-01 23:10:00,
2013-04-01 19:15:00,63.3,45.9,28.76,SW,225,4.6,4.6,53,0.00,CLR,,0.32,WeatherDisplay:10.37,2013-04-01 23:15:00,
2013-04-01 19:20:00,63.0,46.0,28.76,South,180,5.8,5.8,54,0.00,CLR,,0.32,WeatherDisplay:10.37,2013-04-01 23:20:00,
2013-04-01 19:25:00,62.8,45.9,28.77,NW,315,8.1,8.1,54,0.00,CLR,,0.32,WeatherDisplay:10.37,2013-04-01 23:25:00,
2013-04-01 19:30:00,62.4,45.5,28.77,SW,225,5.8,5.8,54,0.00,CLR,,0.32,WeatherDisplay:10.37,2013-04-01 23:30:00,
2013-04-01 19:35:00,62.1,45.7,28.77,North,0,8.1,8.1,55,0.00,CLR,,0.32,WeatherDisplay:10.37,2013-04-01 23:35:00,
2013-04-01 19:40:00,61.7,45.4,28.77,SW,225,6.9,6.9,55,0.00,CLR,,0.32,WeatherDisplay:10.37,2013-04-01 23:40:00,
2013-04-01 19:45:00,61.5,45.2,28.77,North,0,8.1,8.1,55,0.00,CLR,,0.32,WeatherDisplay:10.37,2013-04-01 23:45:00,
2013-04-01 19:50:00,61.3,45.0,28.77,SW,225,11.5,11.5,55,0.00,CLR,,0.32,WeatherDisplay:10.37,2013-04-01 23:50:00,
2013-04-01 19:55:00,61.2,45.3,28.77,SW,225,4.6,4.6,56,0.00,CLR,,0.32,WeatherDisplay:10.37,2013-04-01 23:55:00,
2013-04-01 20:00:00,61.0,44.7,28.78,SW,225,4.6,4.6,55,0.00,CLR,,0.32,WeatherDisplay:10.37,2013-04-02 00:00:00,
2013-04-01 20:05:00,60.8,45.0,28.78,SW,225,8.1,8.1,56,0.00,CLR,,0.32,WeatherDisplay:10.37,2013-04-02 00:05:00,
2013-04-01 20:10:00,60.6,44.8,28.78,West,270,5.8,5.8,56,0.00,CLR,,0.32,WeatherDisplay:10.37,2013-04-02 00:10:00,
2013-04-01 20:16:00,60.4,44.7,28.78,West,270,9.2,9.2,56,0.00,CLR,,0.32,WeatherDisplay:10.37,2013-04-02 00:16:00,
2013-04-01 20:22:00,60.4,44.2,28.79,West,270,12.7,12.7,55,0.00,CLR,,0.32,WeatherDisplay:10.37,2013-04-02 00:22:00,
2013-04-01 20:28:00,60.3,44.0,28.79,SW,225,5.8,5.8,55,0.00,CLR,,0.32,WeatherDisplay:10.37,2013-04-02 00:28:00,
2013-04-01 20:33:00,60.1,43.9,28.79,SW,225,3.5,3.5,55,0.00,CLR,,0.32,WeatherDisplay:10.37,2013-04-02 00:33:00,
2013-04-01 20:38:00,59.9,43.7,28.79,NW,315,6.9,6.9,55,0.00,CLR,,0.32,WeatherDisplay:10.37,2013-04-02 00:38:00,
2013-04-01 20:44:00,59.7,44.0,28.79,NW,315,8.1,8.1,56,0.00,CLR,,0.32,WeatherDisplay:10.37,2013-04-02 00:44:00,
2013-04-01 20:49:00,59.4,44.1,28.79,NW,315,3.5,3.5,57,0.00,CLR,,0.32,WeatherDisplay:10.37,2013-04-02 00:49:00,
2013-04-01 20:54:00,58.8,43.6,28.79,NW,315,3.5,3.5,57,0.00,CLR,,0.32,WeatherDisplay:10.37,2013-04-02 00:54:00,
2013-04-01 21:00:00,58.6,43.4,28.79,NW,315,8.1,8.1,57,0.00,CLR,,0.32,WeatherDisplay:10.37,2013-04-02 01:00:00,
2013-04-01 21:05:00,58.5,43.3,28.79,NW,315,2.3,0.0,57,0.00,CLR,,0.32,WeatherDisplay:10.37,2013-04-02 01:05:00,
2013-04-01 21:10:00,57.9,43.2,28.79,NW,315,2.3,0.0,58,0.00,CLR,,0.32,WeatherDisplay:10.37,2013-04-02 01:10:00,
2013-04-01 21:17:00,57.4,42.7,28.80,SW,225,1.2,0.0,58,0.00,CLR,,0.32,WeatherDisplay:10.37,2013-04-02 01:17:00,
2013-04-01 21:22:00,57.2,43.0,28.80,West,270,1.2,0.0,59,0.00,RA,,0.32,WeatherDisplay:10.37,2013-04-02 01:22:00,
2013-04-01 21:27:00,57.2,43.0,28.80,West,270,1.2,0.0,59,0.00,RA,,0.32,WeatherDisplay:10.37,2013-04-02 01:27:00,
2013-04-01 21:32:00,56.5,43.2,28.80,NW,315,1.2,0.0,61,0.00,CLR,,0.32,WeatherDisplay:10.37,2013-04-02 01:32:00,
2013-04-01 21:37:00,55.8,42.9,28.80,NW,315,0.0,0.0,62,0.00,CLR,,0.32,WeatherDisplay:10.37,2013-04-02 01:37:00,
2013-04-01 21:42:00,55.8,42.9,28.81,WNW,292,1.2,0.0,62,0.00,CLR,,0.32,WeatherDisplay:10.37,2013-04-02 01:42:00,
2013-04-01 21:47:00,55.2,42.8,28.81,West,270,4.6,4.6,63,0.00,CLR,,0.32,WeatherDisplay:10.37,2013-04-02 01:47:00,
2013-04-01 21:52:00,55.8,43.3,28.81,SW,225,3.5,0.0,63,0.00,CLR,,0.32,WeatherDisplay:10.37,2013-04-02 01:52:00,
2013-04-01 21:57:00,55.8,43.3,28.81,SW,225,0.0,0.0,63,0.00,CLR,,0.32,WeatherDisplay:10.37,2013-04-02 01:57:00,
2013-04-01 22:02:00,55.6,42.8,28.82,SW,225,0.0,0.0,62,0.00,CLR,,0.32,WeatherDisplay:10.37,2013-04-02 02:02:00,
2013-04-01 22:08:00,54.7,43.1,28.82,SW,225,0.0,0.0,65,0.00,CLR,,0.32,WeatherDisplay:10.37,2013-04-02 02:08:00,
2013-04-01 22:13:00,53.8,43.1,28.82,SW,225,0.0,0.0,67,0.00,CLR,,0.32,WeatherDisplay:10.37,2013-04-02 02:13:00,
2013-04-01 22:18:00,52.3,42.5,28.83,SW,225,0.0,0.0,69,0.00,CLR,,0.32,WeatherDisplay:10.37,2013-04-02 02:18:00,
2013-04-01 22:23:00,52.0,42.5,28.83,SW,225,0.0,0.0,70,0.00,CLR,,0.32,WeatherDisplay:10.37,2013-04-02 02:23:00,
2013-04-01 22:28:00,51.3,41.8,28.83,SW,225,0.0,0.0,70,0.00,CLR,,0.32,WeatherDisplay:10.37,2013-04-02 02:28:00,
2013-04-01 22:33:00,51.3,41.8,28.83,SW,225,0.0,0.0,70,0.00,CLR,,0.32,WeatherDisplay:10.37,2013-04-02 02:33:00,
2013-04-01 22:38:00,50.2,41.9,28.82,SW,225,0.0,0.0,73,0.00,CLR,,0.32,WeatherDisplay:10.37,2013-04-02 02:38:00,
2013-04-01 22:43:00,50.7,42.4,28.83,West,270,1.2,0.0,73,0.00,CLR,,0.32,WeatherDisplay:10.37,2013-04-02 02:43:00,
2013-04-01 22:48:00,50.9,42.6,28.83,NW,315,0.0,0.0,73,0.00,CLR,,0.32,WeatherDisplay:10.37,2013-04-02 02:48:00,
2013-04-01 22:53:00,50.7,42.4,28.82,NW,315,0.0,0.0,73,0.00,CLR,,0.32,WeatherDisplay:10.37,2013-04-02 02:53:00,
2013-04-01 22:58:00,50.5,41.8,28.83,NW,315,1.2,0.0,72,0.00,CLR,,0.32,WeatherDisplay:10.37,2013-04-02 02:58:00,
2013-04-01 23:04:00,50.4,41.7,28.83,NW,315,0.0,0.0,72,0.00,CLR,,0.32,WeatherDisplay:10.37,2013-04-02 03:04:00,
2013-04-01 23:09:00,49.6,41.7,28.83,NW,315,0.0,0.0,74,0.00,CLR,,0.32,WeatherDisplay:10.37,2013-04-02 03:09:00,
2013-04-01 23:14:00,49.1,41.5,28.83,North,0,0.0,0.0,75,0.00,CLR,,0.32,WeatherDisplay:10.37,2013-04-02 03:14:00,
2013-04-01 23:19:00,48.7,41.5,28.84,NW,315,2.3,0.0,76,0.00,CLR,,0.32,WeatherDisplay:10.37,2013-04-02 03:19:00,
2013-04-01 23:24:00,48.2,41.7,28.84,NW,315,1.2,0.0,78,0.00,CLR,,0.32,WeatherDisplay:10.37,2013-04-02 03:24:00,
2013-04-01 23:29:00,47.7,41.1,28.84,NW,315,1.2,0.0,78,0.00,CLR,,0.32,WeatherDisplay:10.37,2013-04-02 03:29:00,
2013-04-01 23:34:00,46.9,40.8,28.84,NW,315,0.0,0.0,79,0.00,CLR,,0.32,WeatherDisplay:10.37,2013-04-02 03:34:00,
2013-04-01 23:39:00,46.4,40.6,28.85,NW,315,0.0,0.0,80,0.00,CLR,,0.32,WeatherDisplay:10.37,2013-04-02 03:39:00,
2013-04-01 23:44:00,46.2,40.7,28.84,SW,225,0.0,0.0,81,0.00,CLR,,0.32,WeatherDisplay:10.37,2013-04-02 03:44:00,
2013-04-01 23:49:00,47.3,41.1,28.84,NW,315,2.3,0.0,79,0.00,CLR,,0.32,WeatherDisplay:10.37,2013-04-02 03:49:00,
2013-04-01 23:54:00,48.0,41.5,28.85,NW,315,0.0,0.0,78,0.00,CLR,,0.32,WeatherDisplay:10.37,2013-04-02 03:54:00,